Location: Albany
(35.0000°S, 118.0000°E)
Time: 22:52:19
(UTC-05:00)

ISS - All Passes

Search period start: 23 February 2017 00:00
Search period end: 05 March 2017 00:00
Orbit: 399 x 408 km, 51.6° (Epoch: 24 February)

Date Brightness Start Highest point End Pass type
(mag) Time Alt. Az. Time Alt. Az. Time Alt. Az.
23 Feb - 07:20:16 10° NW 07:23:32 82° NE 07:26:51 10° SE visible
23 Feb - 08:58:42 10° WSW 09:00:23 13° SSW 09:02:04 10° S visible
23 Feb - 13:51:01 10° SSW 13:53:45 23° SSE 13:56:28 10° E visible
23 Feb - 15:27:15 10° WSW 15:30:14 31° NW 15:33:11 10° NNE visible
24 Feb - 06:28:05 10° NNW 06:31:06 35° NE 06:34:09 10° ESE visible
24 Feb - 08:05:03 10° W 08:07:38 21° SSW 08:10:14 10° SSE visible
24 Feb - 12:59:05 10° S 13:01:01 14° SSE 13:02:57 10° ESE night (unlit)
24 Feb - 14:34:30 10° SW 14:37:48 70° NW 14:41:05 10° NE night (unlit)
25 Feb - 05:36:33 10° N 05:38:44 17° NE 05:40:57 10° E daylight
25 Feb - 07:11:53 10° WNW 07:14:58 36° SW 07:18:04 10° SSE visible
25 Feb - 13:42:00 10° SW 13:45:17 52° SE 13:48:31 10° ENE night (unlit)
25 Feb - 15:20:08 10° WNW 15:21:22 12° NW 15:22:36 10° NNW night (unlit)
26 Feb - 06:19:07 10° NW 06:22:23 77° SW 06:25:42 10° SE visible
26 Feb - 07:58:07 10° SW 07:59:20 12° SSW 08:00:34 10° S visible
26 Feb - 12:49:44 10° SSW 12:52:39 27° SE 12:55:32 10° E night (unlit)
26 Feb - 14:26:17 10° WSW 14:29:01 24° NW 14:31:45 10° N night (unlit)
27 Feb - 05:26:44 10° NNW 05:29:53 46° NE 05:33:04 10° ESE daylight
27 Feb - 07:04:10 10° WSW 07:06:31 18° SSW 07:08:52 10° SSE visible
27 Feb - 11:57:40 10° SSW 11:59:54 17° SSE 12:02:08 10° ESE night (unlit)
27 Feb - 13:33:20 10° WSW 13:36:35 53° NW 13:39:48 10° NNE night (unlit)
28 Feb - 04:34:54 10° N 04:37:28 21° NE 04:40:02 10° ESE daylight
28 Feb - 06:10:49 10° W 06:13:46 30° SW 06:16:45 10° SSE visible
28 Feb - 11:06:09 10° S 11:07:03 11° SSE 11:07:58 10° SE night (unlit)
28 Feb - 12:40:45 10° SW 12:44:03 68° SE 12:47:20 10° NE night (unlit)
01 Mar - 03:44:52 10° NE 03:45:05 10° NE 03:45:18 10° ENE daylight
01 Mar - 05:17:53 10° WNW 05:21:08 60° SW 05:24:24 10° SE daylight
01 Mar - 06:57:46 10° SSW 06:58:10 10° SSW 06:58:33 10° SSW visible
01 Mar - 11:48:22 10° SSW 11:51:24 33° SE 11:54:26 10° ENE night (unlit)
01 Mar - 13:25:15 10° W 13:27:41 19° NW 13:30:07 10° N night (unlit)
02 Mar - 04:25:19 10° NW 04:28:33 60° NE 04:31:49 10° SE daylight
02 Mar - 06:03:13 10° WSW 06:05:17 15° SSW 06:07:22 10° S visible
02 Mar - 10:56:10 10° SSW 10:58:39 19° SSE 11:01:08 10° E night (unlit)
02 Mar - 12:32:06 10° WSW 12:35:15 41° NW 12:38:21 10° NNE night (unlit)
03 Mar - 03:33:15 10° N 03:36:04 27° NE 03:38:54 10° ESE daylight
03 Mar - 05:09:41 10° W 05:12:29 25° SW 05:15:18 10° SSE daylight
03 Mar - 10:04:20 10° S 10:05:48 12° SSE 10:07:16 10° SE night (unlit)
03 Mar - 11:39:23 10° SW 11:42:42 87° SE 11:45:59 10° NE night (unlit)
04 Mar - 02:42:04 10° NNE 02:43:38 13° NE 02:45:13 10° E daylight
04 Mar - 04:16:34 10° WNW 04:19:45 47° SW 04:22:58 10° SE daylight
04 Mar - 10:46:53 10° SW 10:50:03 40° SE 10:53:11 10° ENE night (unlit)
04 Mar - 12:24:13 10° W 12:26:14 15° NW 12:28:14 10° NNW night (unlit)
